Location: Zwardon
(49.5170°N, 18.9830°E)
Time: 17:55:44
(UTC+01:00)

ISS - Visible Passes

Search period start: 19 March 2019 00:00
Search period end: 29 March 2019 00:00
Orbit: 406 x 411 km, 51.6° (Epoch: 20 March)

Date Brightness Start Highest point End Pass type
(mag) Time Alt. Az. Time Alt. Az. Time Alt. Az.
21 Mar -1.5 18:55:30 10° SSE 18:56:06 11° SE 18:56:06 11° SE visible
22 Mar -2.8 19:38:19 10° SSW 19:40:47 31° SSE 19:40:47 31° SSE visible
23 Mar -2.4 18:47:51 10° SSW 18:50:27 21° SE 18:52:28 13° E visible
23 Mar -2.2 20:23:23 10° WSW 20:25:14 31° WSW 20:25:14 31° WSW visible
24 Mar -3.8 19:32:24 10° SW 19:35:40 61° SSE 19:36:43 37° E visible
24 Mar -0.7 21:09:01 10° W 21:09:28 13° W 21:09:28 13° W visible
25 Mar -3.2 18:41:34 10° SW 18:44:41 40° SSE 18:47:49 10° ENE visible
25 Mar -3.3 20:17:53 10° W 20:20:47 59° NW 20:20:47 59° NW visible
26 Mar -3.8 19:26:46 10° WSW 19:30:04 83° NNW 19:31:58 23° ENE visible
26 Mar -1.2 21:03:33 10° WNW 21:04:43 20° WNW 21:04:43 20° WNW visible
27 Mar -3.8 18:35:42 10° WSW 18:38:59 73° SSE 18:42:17 10° ENE visible
27 Mar -3.4 20:12:24 10° W 20:15:40 57° N 20:15:48 56° N visible
28 Mar -3.5 19:21:14 10° W 19:24:31 62° N 19:26:49 18° ENE visible
28 Mar -1.6 20:57:59 10° WNW 20:59:33 25° WNW 20:59:33 25° WNW visible
